Location: Siratepeler Tepesi
(39.1042°N, 32.0781°E)
Time: 04:59:14
(UTC+00:00)

Cosmos 1538 Rocket - Pass Details

Date: 11 April 2026
Orbit: 749 x 787 km, 74.0° (Epoch: 9 May)

Event Time Altitude Azimuth Distance (km) Brightness Sun altitude
Rises 17:29:14 0° 342° (NNW) 3,202 7.9 -12.7°
Reaches altitude 10° 17:31:36 10° 343° (NNW) 2,274 7.0 -13.2°
Maximum altitude 17:36:46 84° 70° (ENE) 759 3.9 -14.1°
Enters shadow 17:41:37 12° 160° (SSE) 2,152 5.9 -14.9°
